FW2972 Weather Reports


Display with metric or nautical units.
time (UTC)temp
F
wind
direction
speed
MPH
gust
MPH
rain 1hr
in
rain 24hr
in
rain mn
in
humidity
%
barometer
mb
20260903180343 93 217 0.0 3.0 0.00 0.00 0.00 72 1015.0
20260903175843 93 146 4.0 6.0 0.00 0.00 0.00 72 1015.2
20260903175337 94 301 0.0 3.0 0.00 0.00 0.00 73 1015.3
20260903174832 93 48 0.0 4.0 0.00 0.00 0.00 73 1015.4
20260903174327 92 108 0.0 8.0 0.00 0.00 0.00 75 1015.5
20260903173826 93 74 2.0 3.0 0.00 0.00 0.00 74 1015.3
20260903173322 91 231 2.0 4.0 0.00 0.00 0.00 74 1015.1
20260903172818 92 205 2.0 4.0 0.00 0.00 0.00 73 1015.2
20260903172313 92 185 2.0 5.0 0.00 0.00 0.00 72 1015.5
20260903171808 92 219 1.0 2.0 0.00 0.00 0.00 72 1015.5
20260903171304 93 205 1.0 1.0 0.00 0.00 0.00 73 1015.6
20260903170802 92 125 1.0 5.0 0.00 0.00 0.00 74 1015.6
20260903170257 93 327 0.0 3.0 0.00 0.00 0.00 73 1015.7
20260903165756 92 279 2.0 3.0 0.00 0.00 0.00 76 1015.8
20260903165251 92 305 4.0 4.0 0.00 0.00 0.00 76 1015.9
20260903164745 92 112 4.0 7.0 0.00 0.00 0.00 77 1015.8
20260903164241 91 346 1.0 2.0 0.00 0.00 0.00 80 1015.9
20260903163740 90 304 2.0 3.0 0.00 0.00 0.00 80 1015.6
20260903163237 91 273 1.0 3.0 0.00 0.00 0.00 80 1015.5
20260903162732 89 11 0.0 1.0 0.00 0.00 0.00 82 1015.7
20260903162229 88 333 0.0 1.0 0.00 0.00 0.00 85 1015.7
20260903161724 87 150 0.0 3.0 0.00 0.00 0.00 85 1015.5
20260903161214 86 108 0.0 2.0 0.00 0.00 0.00 88 1015.5
20260903160710 86 180 0.0 2.0 0.00 0.00 0.00 88 1015.4
20260903160208 85 332 0.0 2.0 0.00 0.00 0.00 88 1015.4
20260903155707 85 177 2.0 2.0 0.00 0.00 0.00 88 1015.6
20260903155202 84 66 0.0 2.0 0.00 0.00 0.00 90 1015.6
20260903154658 84 117 0.0 3.0 0.00 0.00 0.00 90 1015.6
20260903154154 83 197 1.0 2.0 0.00 0.00 0.00 90 1015.7
20260903153649 83 136 1.0 4.0 0.00 0.00 0.00 89 1015.5
20260903153145 83 127 1.0 3.0 0.00 0.00 0.00 89 1015.7
20260903152641 82 205 0.0 4.0 0.00 0.00 0.00 89 1015.6
20260903152137 82 165 0.0 2.0 0.00 0.00 0.00 89 1015.5
20260903151637 82 205 0.0 1.0 0.00 0.00 0.00 89 1015.5
20260903151132 82 212 0.0 0.0 0.00 0.00 0.00 89 1015.3
20260903150631 82 147 1.0 2.0 0.00 0.00 0.00 89 1015.3
20260903150126 81 229 0.0 3.0 0.00 0.00 0.00 89 1015.6
20260903145626 81 153 1.0 1.0 0.00 0.00 0.00 90 1015.6
20260903145121 81 186 0.0 1.0 0.00 0.00 0.00 89 1015.6
20260903144620 81 193 0.0 1.0 0.00 0.00 0.00 90 1015.6
20260903144116 81 129 0.0 1.0 0.00 0.00 0.00 90 1015.3
20260903143612 81 69 0.0 1.0 0.00 0.00 0.00 90 1015.4
20260903143108 80 111 0.0 1.0 0.00 0.00 0.00 90 1015.3
20260903142603 80 180 0.0 2.0 0.00 0.00 0.00 90 1015.5
20260903142100 80 25 0.0 1.0 0.00 0.00 0.00 90 1015.7
20260903141555 80 138 1.0 2.0 0.00 0.00 0.00 90 1015.8
20260903141050 80 180 0.0 0.0 0.00 0.00 0.00 90 1015.9
20260903140546 80 191 0.0 2.0 0.00 0.00 0.00 90 1015.8
20260903140041 80 106 1.0 2.0 0.00 0.00 0.00 90 1015.7
20260903135536 80 125 0.0 2.0 0.00 0.00 0.00 90 1015.7
20260903135031 80 188 1.0 3.0 0.00 0.00 0.00 90 1015.7
20260903134531 80 180 0.0 1.0 0.00 0.00 0.00 90 1015.8
20260903134027 80 110 0.0 1.0 0.00 0.00 0.00 90 1015.7
20260903133524 80 150 0.0 0.0 0.00 0.00 0.00 90 1015.9
20260903133019 80 150 0.0 1.0 0.00 0.00 0.00 89 1016.0
20260903132514 80 105 1.0 2.0 0.00 0.00 0.00 88 1015.8
20260903132009 80 171 0.0 3.0 0.00 0.00 0.00 88 1015.7
20260903131504 80 135 0.0 3.0 0.00 0.00 0.00 88 1015.9
20260903131003 81 101 2.0 3.0 0.00 0.00 0.00 88 1015.7
20260903130458 81 124 1.0 4.0 0.00 0.00 0.00 88 1015.7
20260903125956 81 190 0.0 3.0 0.00 0.00 0.00 88 1015.4
20260903125456 81 190 2.0 6.0 0.00 0.00 0.00 88 1015.5
20260903124951 81 209 1.0 3.0 0.00 0.00 0.00 89 1015.5
20260903124446 82 130 3.0 8.0 0.00 0.00 0.00 91 1015.5
20260903123945 82 236 1.0 6.0 0.00 0.00 0.00 96 1015.4
20260903123440 82 154 2.0 3.0 0.00 0.00 0.00 97 1015.4
20260903122938 82 221 0.0 1.0 0.00 0.00 0.00 97 1015.1
20260903122433 82 149 1.0 2.0 0.00 0.00 0.00 98 1015.2
20260903121932 82 135 0.0 1.0 0.00 0.00 0.00 97 1015.0
20260903121427 82 173 0.0 2.0 0.00 0.00 0.00 97 1014.7
20260903120923 82 212 0.0 2.0 0.00 0.00 0.00 97 1014.9
20260903120422 82 216 0.0 1.0 0.00 0.00 0.00 97 1014.6
20260903115921 82 180 0.0 2.0 0.00 0.00 0.00 97 1015.0
20260903115420 82 230 0.0 2.0 0.00 0.00 0.00 97 1014.7
20260903114915 82 191 0.0 2.0 0.00 0.00 0.00 96 1014.9
20260903114410 82 242 0.0 1.0 0.00 0.00 0.00 96 1014.9
20260903113906 83 89 0.0 1.0 0.00 0.00 0.00 95 1014.6
20260903113402 83 218 0.0 2.0 0.00 0.00 0.00 95 1014.7
20260903112857 83 155 0.0 2.0 0.00 0.00 0.00 95 1014.8
20260903112353 83 227 0.0 3.0 0.00 0.00 0.00 95 1014.6
20260903111852 83 205 0.0 2.0 0.00 0.00 0.00 94 1014.5
20260903111351 83 177 0.0 3.0 0.00 0.00 0.00 93 1014.6
20260903110848 83 171 1.0 2.0 0.00 0.00 0.00 93 1014.7
20260903110343 83 202 0.0 3.0 0.00 0.00 0.00 93 1014.7
20260903105838 83 324 0.0 3.0 0.00 0.00 0.00 93 1014.5
20260903105333 83 203 0.0 2.0 0.00 0.00 0.00 93 1014.6
20260903104832 83 196 0.0 2.0 0.00 0.00 0.00 94 1014.6
20260903104327 83 206 2.0 3.0 0.00 0.00 0.00 94 1014.4
20260903103824 83 231 0.0 2.0 0.00 0.00 0.00 94 1014.5
20260903103320 83 203 0.0 2.0 0.00 0.00 0.00 94 1014.6
20260903102816 83 196 1.0 2.0 0.00 0.00 0.00 93 1014.4
20260903102316 83 160 0.0 3.0 0.00 0.00 0.00 93 1014.5
20260903101815 83 200 0.0 3.0 0.00 0.00 0.00 93 1014.5
20260903101310 83 181 1.0 4.0 0.00 0.00 0.00 93 1014.4
20260903100806 83 201 2.0 4.0 0.00 0.00 0.00 93 1014.3
20260903100300 83 180 1.0 2.0 0.00 0.00 0.00 93 1014.4
20260903095757 83 173 0.0 4.0 0.00 0.00 0.00 93 1014.3
20260903095252 83 208 2.0 3.0 0.00 0.00 0.00 93 1014.3
20260903094747 83 164 1.0 3.0 0.00 0.00 0.00 93 1014.2
20260903094242 83 210 2.0 3.0 0.00 0.00 0.00 93 1014.2
20260903093737 83 313 0.0 4.0 0.00 0.00 0.00 93 1014.4
20260903093233 83 206 0.0 3.0 0.00 0.00 0.00 93 1014.4
20260903092732 83 130 2.0 2.0 0.00 0.00 0.00 93 1014.5
20260903092227 83 147 2.0 3.0 0.00 0.00 0.00 93 1014.3
20260903091726 12 314 0.0 2.0 0.00 0.00 0.00 41 1014.3
20260903091220 12 168 1.0 3.0 0.00 0.00 0.00 41 1014.4
20260903090716 12 202 1.0 5.0 0.00 0.00 0.00 41 1014.5
20260903090214 12 139 2.0 2.0 0.00 0.00 0.00 41 1014.5
20260903085713 12 141 3.0 4.0 0.00 0.00 0.00 41 1014.6
20260903085209 12 210 0.0 4.0 0.00 0.00 0.00 41 1014.6
20260903084707 12 204 0.0 3.0 0.00 0.00 0.00 41 1014.3
20260903084201 12 173 2.0 6.0 0.00 0.00 0.00 41 1014.6
20260903083658 12 131 2.0 2.0 0.00 0.00 0.00 41 1014.3
20260903083157 12 145 0.0 3.0 0.00 0.00 0.00 41 1014.4
20260903082651 12 138 2.0 3.0 0.00 0.00 0.00 41 1014.4
20260903082148 12 190 0.0 2.0 0.00 0.00 0.00 41 1014.3
20260903081642 83 120 1.0 5.0 0.00 0.00 0.00 93 1014.2
20260903081138 83 175 1.0 5.0 0.00 0.00 0.00 93 1014.3
20260903080634 83 240 2.0 4.0 0.00 0.00 0.00 92 1014.2
20260903080132 83 218 0.0 3.0 0.00 0.00 0.00 93 1014.1
20260903075631 83 239 1.0 3.0 0.00 0.00 0.00 92 1014.3
20260903075126 83 203 2.0 5.0 0.00 0.00 0.00 92 1014.2
20260903074625 84 297 2.0 3.0 0.00 0.00 0.00 92 1014.2
20260903074120 84 247 2.0 3.0 0.00 0.00 0.00 92 1014.3
20260903073615 84 219 2.0 5.0 0.00 0.00 0.00 92 1014.2
20260903073111 84 250 3.0 5.0 0.00 0.00 0.00 92 1014.1
20260903072607 84 214 2.0 2.0 0.00 0.00 0.00 92 1014.2
20260903072103 84 210 1.0 2.0 0.00 0.00 0.00 92 1014.3
20260903071559 84 235 0.0 3.0 0.00 0.00 0.00 91 1014.4
20260903071059 84 60 0.0 3.0 0.00 0.00 0.00 91 1014.3
20260903070559 84 180 2.0 4.0 0.00 0.00 0.00 91 1014.5
20260903070055 84 147 1.0 2.0 0.00 0.00 0.00 91 1014.4
20260903065554 84 195 1.0 6.0 0.00 0.00 0.00 91 1014.4
20260903065049 84 209 0.0 5.0 0.00 0.00 0.00 92 1014.7
20260903064549 84 190 1.0 3.0 0.00 0.00 0.00 91 1014.8
20260903064044 84 101 3.0 4.0 0.00 0.00 0.00 92 1014.6
20260903063539 84 196 0.0 6.0 0.00 0.00 0.00 92 1014.7
20260903063035 84 284 1.0 5.0 0.00 0.00 0.00 91 1014.9
20260903062530 84 157 1.0 3.0 0.00 0.00 0.00 91 1014.7
20260903062025 84 195 2.0 5.0 0.00 0.00 0.00 91 1015.0
20260903061521 84 148 1.0 5.0 0.00 0.00 0.00 91 1015.1
20260903061021 84 284 0.0 3.0 0.00 0.00 0.00 91 1015.0
20260903060520 84 187 0.0 3.0 0.00 0.00 0.00 91 1015.1
20260903060015 84 217 0.0 2.0 0.00 0.00 0.00 91 1015.1
20260903055513 84 269 0.0 2.0 0.00 0.00 0.00 90 1015.3
20260903055012 84 191 0.0 4.0 0.00 0.00 0.00 90 1015.2
20260903054507 84 133 2.0 5.0 0.00 0.00 0.00 90 1015.2
20260903054003 84 275 1.0 2.0 0.00 0.00 0.00 90 1015.3
20260903053503 84 89 0.0 4.0 0.00 0.00 0.00 89 1015.3
20260903052959 84 187 2.0 3.0 0.00 0.00 0.00 90 1015.2
20260903052455 84 232 0.0 4.0 0.00 0.00 0.00 89 1015.0
20260903051950 84 111 5.0 5.0 0.00 0.00 0.00 89 1015.2
20260903051445 84 196 0.0 3.0 0.00 0.00 0.00 89 1015.1
20260903050941 84 232 1.0 3.0 0.00 0.00 0.00 89 1015.2
20260903050439 84 179 2.0 2.0 0.00 0.00 0.00 89 1015.4
20260903045934 84 164 1.0 3.0 0.00 0.00 0.00 89 1015.2
20260903045430 84 175 1.0 5.0 0.00 0.00 0.00 88 1015.4
20260903044926 84 142 3.0 5.0 0.00 0.00 0.00 88 1015.3
20260903044427 84 197 0.0 3.0 0.00 0.00 0.00 88 1015.8
20260903043923 84 171 1.0 3.0 0.00 0.00 0.00 88 1015.5
20260903043419 84 195 0.0 4.0 0.00 0.00 0.00 88 1015.8
20260903042917 85 156 2.0 4.0 0.00 0.00 0.00 88 1015.6
20260903042413 85 201 1.0 5.0 0.00 0.00 0.00 88 1015.7
20260903041908 85 98 3.0 5.0 0.00 0.00 0.00 88 1015.4
20260903041404 85 184 1.0 8.0 0.00 0.00 0.00 88 1015.5
20260903040900 85 122 2.0 6.0 0.00 0.00 0.00 88 1015.7
20260903040359 85 147 2.0 4.0 0.00 0.00 0.00 88 1015.5
20260903035855 85 271 1.0 3.0 0.00 0.00 0.00 88 1015.7
20260903035350 85 135 0.0 3.0 0.00 0.00 0.00 89 1015.6
20260903034845 85 179 1.0 4.0 0.00 0.00 0.00 88 1015.5
20260903034341 85 164 1.0 5.0 0.00 0.00 0.00 88 1015.4
20260903033836 85 199 3.0 4.0 0.00 0.00 0.00 88 1015.3
20260903033331 85 154 6.0 10.0 0.00 0.00 0.00 88 1015.0
20260903032830 85 134 1.0 5.0 0.00 0.00 0.00 88 1015.3
20260903032326 85 203 0.0 4.0 0.00 0.00 0.00 88 1015.4
20260903031821 85 18 0.0 2.0 0.00 0.00 0.00 88 1015.3
20260903031321 85 170 2.0 5.0 0.00 0.00 0.00 88 1015.3
20260903030817 85 102 2.0 6.0 0.00 0.00 0.00 88 1015.3
20260903030313 85 206 1.0 5.0 0.00 0.00 0.00 88 1015.1
20260903025808 85 217 0.0 8.0 0.00 0.00 0.00 88 1015.1
20260903025306 85 162 1.0 6.0 0.00 0.00 0.00 89 1015.0
20260903024758 85 143 1.0 3.0 0.00 0.00 0.00 89 1014.9
20260903024257 85 208 2.0 5.0 0.00 0.00 0.00 89 1014.7
20260903023753 85 210 2.0 7.0 0.00 0.00 0.00 89 1014.8
20260903023249 85 217 0.0 5.0 0.00 0.00 0.00 89 1014.8
20260903022749 85 145 4.0 6.0 0.00 0.00 0.00 89 1014.8
20260903022248 85 127 1.0 6.0 0.00 0.00 0.00 89 1014.4
20260903021747 85 160 3.0 4.0 0.00 0.00 0.00 89 1014.3
20260903021243 85 146 2.0 3.0 0.00 0.00 0.00 89 1014.4
20260903020743 85 184 0.0 5.0 0.00 0.00 0.00 89 1014.3
20260903020237 85 236 1.0 4.0 0.00 0.00 0.00 90 1014.3
20260903015732 85 127 6.0 11.0 0.00 0.00 0.00 89 1014.4
20260903015228 85 138 2.0 5.0 0.00 0.00 0.00 89 1014.3
20260903014723 85 134 1.0 5.0 0.00 0.00 0.00 89 1014.2
20260903014222 85 154 1.0 6.0 0.00 0.00 0.00 89 1014.3
20260903013718 85 201 1.0 9.0 0.00 0.00 0.00 89 1014.2
20260903013217 86 94 2.0 3.0 0.00 0.00 0.00 89 1014.3
20260903012716 86 140 0.0 6.0 0.00 0.00 0.00 88 1014.3
20260903012215 86 120 3.0 6.0 0.00 0.00 0.00 88 1014.2
20260903011710 86 166 0.0 6.0 0.00 0.00 0.00 88 1014.3
20260903011210 86 156 3.0 7.0 0.00 0.00 0.00 87 1013.9
20260903010706 86 174 4.0 9.0 0.00 0.00 0.00 87 1013.8
20260903010205 86 8 0.0 4.0 0.00 0.00 0.00 86 1013.7
20260903005704 86 150 6.0 11.0 0.00 0.00 0.00 86 1013.5
20260903005200 86 135 4.0 5.0 0.00 0.00 0.00 85 1013.9
20260903004655 86 202 1.0 9.0 0.00 0.00 0.00 85 1014.0
20260903004149 87 141 5.0 7.0 0.00 0.00 0.00 84 1014.0
20260903003645 87 257 3.0 7.0 0.00 0.00 0.00 84 1013.9
20260903003140 87 180 0.0 8.0 0.00 0.00 0.00 83 1013.9
20260903002636 87 189 1.0 4.0 0.00 0.00 0.00 82 1013.8
20260903002130 87 316 0.0 5.0 0.00 0.00 0.00 81 1013.4
20260903001624 87 118 0.0 5.0 0.00 0.00 0.00 81 1013.0
20260903001119 87 196 2.0 9.0 0.00 0.00 0.00 80 1013.1
20260903000615 88 220 2.0 10.0 0.00 0.00 0.00 79 1012.9
20260903000114 88 219 2.0 7.0 0.00 0.00 0.00 78 1013.2
20260902235613 88 221 2.0 12.0 0.00 0.00 0.00 77 1013.2
20260902235108 89 139 6.0 7.0 0.00 0.00 0.00 77 1013.1
20260902234602 89 222 2.0 7.0 0.00 0.00 0.00 76 1013.3
20260902234100 89 223 3.0 4.0 0.00 0.00 0.00 75 1013.5
20260902233556 89 147 3.0 11.0 0.00 0.00 0.00 74 1013.2
20260902233050 89 82 1.0 12.0 0.00 0.00 0.00 74 1013.4
20260902232549 89 179 2.0 12.0 0.00 0.00 0.00 74 1013.4
20260902232044 90 137 5.0 15.0 0.00 0.00 0.00 73 1013.3
20260902231539 90 180 2.0 11.0 0.00 0.00 0.00 74 1013.3
20260902231039 90 185 2.0 7.0 0.00 0.00 0.00 74 1013.2
20260902230539 91 216 4.0 8.0 0.00 0.00 0.00 73 1013.0
20260902230038 91 211 1.0 7.0 0.00 0.00 0.00 72 1013.1
20260902225533 91 170 4.0 9.0 0.00 0.00 0.00 72 1012.9
20260902225032 92 243 3.0 5.0 0.00 0.00 0.00 72 1013.0
20260902224531 93 207 4.0 10.0 0.00 0.00 0.00 70 1013.1
20260902224027 93 259 1.0 7.0 0.00 0.00 0.00 67 1013.4
20260902223524 93 284 2.0 6.0 0.00 0.00 0.00 67 1013.1
20260902223022 93 202 2.0 9.0 0.00 0.00 0.00 67 1013.0
20260902222521 94 143 2.0 5.0 0.00 0.00 0.00 65 1013.2
20260902222020 94 257 2.0 11.0 0.00 0.00 0.00 66 1013.2
20260902221515 95 235 3.0 4.0 0.00 0.00 0.00 65 1013.2
20260902221010 96 169 4.0 7.0 0.00 0.00 0.00 64 1013.1
20260902220505 96 50 2.0 9.0 0.00 0.00 0.00 66 1012.9
20260902215959 95 200 2.0 11.0 0.00 0.00 0.00 67 1013.0
20260902215456 95 173 2.0 7.0 0.00 0.00 0.00 67 1013.1
20260902214952 95 155 4.0 6.0 0.00 0.00 0.00 68 1013.2
20260902214450 94 198 2.0 11.0 0.00 0.00 0.00 69 1013.0
20260902213950 92 178 3.0 15.0 0.00 0.00 0.00 71 1013.1
20260902213447 92 198 2.0 7.0 0.00 0.00 0.00 71 1013.3
20260902212944 92 279 4.0 9.0 0.00 0.00 0.00 71 1013.4
20260902212441 92 112 6.0 10.0 0.00 0.00 0.00 72 1013.0
20260902211932 92 168 3.0 13.0 0.00 0.00 0.00 71 1013.0
20260902211427 93 163 2.0 10.0 0.00 0.00 0.00 70 1013.5
20260902210922 93 147 3.0 8.0 0.00 0.00 0.00 70 1013.3
20260902210422 94 258 1.0 7.0 0.00 0.00 0.00 69 1013.5
20260902205920 94 217 5.0 6.0 0.00 0.00 0.00 68 1013.4
20260902205416 96 96 2.0 4.0 0.00 0.00 0.00 61 1013.3
20260902204911 96 61 1.0 4.0 0.00 0.00 0.00 61 1013.4
20260902204410 96 237 3.0 8.0 0.00 0.00 0.00 61 1013.5
20260902203906 96 229 3.0 6.0 0.00 0.00 0.00 61 1013.4
20260902203402 96 234 1.0 6.0 0.00 0.00 0.00 62 1013.8
20260902202856 98 253 2.0 4.0 0.00 0.00 0.00 59 1013.6
20260902202352 99 276 2.0 4.0 0.00 0.00 0.00 59 1013.6
20260902201849 98 253 2.0 3.0 0.00 0.00 0.00 58 1013.9
20260902201348 98 265 3.0 5.0 0.00 0.00 0.00 58 1013.8
20260902200843 97 247 3.0 6.0 0.00 0.00 0.00 60 1013.9
20260902200338 97 266 3.0 5.0 0.00 0.00 0.00 59 1014.0
20260902195834 97 206 2.0 7.0 0.00 0.00 0.00 61 1014.2
20260902195333 96 230 3.0 7.0 0.00 0.00 0.00 61 1014.1
20260902194827 96 127 0.0 6.0 0.00 0.00 0.00 62 1014.2
20260902194322 96 304 0.0 6.0 0.00 0.00 0.00 62 1014.3
20260902193818 97 309 1.0 4.0 0.00 0.00 0.00 62 1014.3
20260902193314 97 242 1.0 7.0 0.00 0.00 0.00 63 1014.5
20260902192813 96 242 1.0 3.0 0.00 0.00 0.00 64 1014.4
20260902192311 95 290 1.0 7.0 0.00 0.00 0.00 65 1014.6
20260902191811 94 295 2.0 5.0 0.00 0.00 0.00 65 1014.5
20260902191306 95 287 1.0 8.0 0.00 0.00 0.00 65 1014.6
20260902190801 95 248 3.0 6.0 0.00 0.00 0.00 63 1014.7
20260902190300 95 220 2.0 5.0 0.00 0.00 0.00 64 1014.7
20260902185756 95 243 2.0 5.0 0.00 0.00 0.00 64 1014.7
20260902185251 95 313 3.0 4.0 0.00 0.00 0.00 64 1014.7
20260902184748 95 275 3.0 8.0 0.00 0.00 0.00 64 1014.8
20260902184243 96 316 3.0 4.0 0.00 0.00 0.00 63 1014.9
20260902183738 95 289 3.0 7.0 0.00 0.00 0.00 64 1015.0
20260902183234 95 304 10.0 11.0 0.00 0.00 0.00 64 1014.9
20260902182731 96 319 4.0 6.0 0.00 0.00 0.00 65 1015.1
20260902182226 95 253 0.0 4.0 0.00 0.00 0.00 66 1015.2
20260902181723 95 304 2.0 6.0 0.00 0.00 0.00 67 1015.3
20260902181223 95 221 5.0 9.0 0.00 0.00 0.00 67 1015.4
20260902180717 95 232 3.0 5.0 0.00 0.00 0.00 68 1015.4